Аэропорт Баку (UBBB)

baku-airport

Международный аэропорт Баку

ICAO: UBBB, IATA: GYD

Бакинский международный аэропорт имени Гейдара Алиева — один из пяти международных аэропортов, обслуживающих Азербайджан. Находится в 25 километрах к востоку от Баку. Порт приписки национальной авиакомпании «Азербайджанские авиалинии».

Принимаемые типы ВС
Ан-12, Ан-24, Ан-26, Ан-28, Ан-30, Ан-32, Ан-72, Ан-74, Ан-124(по согласованию), Ил-62, Ил-76, Ту-134, Ту-154, Як-40, Як-42, Airbus A319, Airbus A320, Airbus A321, Boeing 737, Boeing 747, Boeing 757, Boeing 767 и др. типы ВС 3-4 класса, вертолёты всех типов.

 Схемы: Jeppesen

Сценарии: бесплатные демо-версии с уменьшенным разрешением:

 fs9     fsx     Prepar

платные: http://www.drzewiecki-design.net/

METAR:

UBBB 060130Z 32016KT 9999 FEW060CB 21/14 Q1018 R88/CLRD// NOSIG

TAF UBBB 051722Z 0518/0618 33024G34KT 9999 SCT030 SCT100 TX25/0611Z TN15/0602Z TEMPO 0518/0522 34030G40KT BECMG 0522/0524 34020G30KT TEMPO 0600/0606 -TSRA SCT012 SCT040CB BKN100 BECMG 0606/0608 35016G26KT